Volver al catálogo

DELTA 1 DEB

ActivoSSO
NORAD 37666·DEBRIS·🇺🇸 United States

Lanzado Mar 5, 1978 desde Vandenberg Space Force Base

Loading…

Próximos Pases (próximas 24 horas)

TLE

ActualizadoSource: Space-Track

Época: Sep 14, 2026, 07:41 UTC

1 37666U 78026KD  26257.32040931  .00000412  00000-0  21029-3 0  9999
2 37666  98.9177 292.1795 0036833  71.5863 288.9312 14.20859333221218

Sigue DELTA 1 DEB en tiempo real con AllMySat

Download on the App Store